Weather WX

World > North America > United States > Ohio

Holgate, Ohio Regional Weather

Lat: 41.25N, Lon: 84.13W
Wx Zone: OHZ005
Warning FLW WEATHER ALERT - FLASH FLOOD WATCH (More Info. Click Here) Warning
Feedback

Holgate, OH Regional Weather

Expires:201906201100;;779609
ASUS41 KCLE 201012
RWRCLE
OHIO REGIONAL WEATHER ROUNDUP
NATIONAL WEATHER SERVICE WILMINGTON, OH
600 AM EDT THU JUN 20 2019

NOTE: "FAIR" INDICATES FEW OR NO CLOUDS BELOW 12,000 FEET WITH NO
SIGNIFICANT WEATHER AND/OR OBSTRUCTIONS TO VISIBILITY.


OHZ001>008-015>018-024>027-034-035-043-044-201100-
   NORTHWEST OHIO
  
CITY           SKY/WX    TMP DP  RH WIND       PRES   REMARKS
DEFIANCE       LGT RAIN  66  63  90 E9        29.56S                  
FINDLAY        LGT RAIN  67  64  90 NE6       29.56S                  
TOLEDO EXPRESS CLOUDY    66  61  84 CALM      29.57S                  
TOLEDO EXEC    CLOUDY    65  64  97 E7        29.58R                  
LIMA           CLOUDY    68  66  93 S7        29.57S                  
$$
 

SKY/WX - Weather  TMP - Temperature  DP - Dew Point  RH - Relative Humidity
WIND - Wind Direction/Speed PRES - Barometric Pressure VSB - Visibility
WCI - Wind Chill Index E13G22 Wind - East Wind 13 mph/Gusts of 22 mph